Time,TemperatureF,DewpointF,PressureIn,WindDirection,WindDirectionDegrees,WindSpeedMPH,WindSpeedGustMPH,Humidity,HourlyPrecipIn,Conditions,Clouds,dailyrainin,SoftwareType,DateUTC
2013-05-05 00:04:00,42.8,39.8,30.00,NW,321,0.0,1.0,89,0.00,,---,0.01,VWS V13.01,2013-05-05 05:04:00,
2013-05-05 00:09:00,42.7,39.7,30.00,NW,321,0.0,0.0,89,0.00,,---,0.00,VWS V13.01,2013-05-05 05:09:00,
2013-05-05 00:14:00,42.7,39.7,30.00,North,360,0.0,2.0,89,0.00,,---,0.00,VWS V13.01,2013-05-05 05:14:00,
2013-05-05 00:19:00,42.6,39.6,30.00,North,5,0.0,2.0,89,0.00,,---,0.00,VWS V13.01,2013-05-05 05:19:00,
2013-05-05 00:24:00,42.6,39.6,30.00,North,5,0.0,2.0,89,0.00,,---,0.00,VWS V13.01,2013-05-05 05:24:00,
2013-05-05 00:29:00,42.5,39.5,30.00,North,355,0.0,3.0,89,0.00,,---,0.00,VWS V13.01,2013-05-05 05:29:00,
2013-05-05 00:34:00,42.5,39.5,30.00,North,355,0.0,3.0,89,0.00,,---,0.00,VWS V13.01,2013-05-05 05:34:00,
2013-05-05 00:39:00,42.5,39.5,30.00,North,355,0.0,0.0,89,0.00,,---,0.00,VWS V13.01,2013-05-05 05:39:00,
2013-05-05 00:44:00,42.5,39.5,29.99,North,355,0.0,1.0,89,0.00,,---,0.00,VWS V13.01,2013-05-05 05:44:00,
2013-05-05 00:49:00,42.4,39.4,30.00,North,355,0.0,1.0,89,0.00,,---,0.00,VWS V13.01,2013-05-05 05:49:00,
2013-05-05 00:54:00,42.4,39.4,30.00,North,355,0.0,1.0,89,0.00,,---,0.00,VWS V13.01,2013-05-05 05:54:00,
2013-05-05 01:00:00,42.4,39.4,30.00,North,355,0.0,1.0,89,0.00,,---,0.00,VWS V13.01,2013-05-05 06:00:00,
2013-05-05 01:05:00,42.3,39.3,30.00,North,355,0.0,2.0,89,0.00,,---,0.00,VWS V13.01,2013-05-05 06:05:00,
2013-05-05 01:10:00,42.2,39.2,30.00,NNW,336,0.0,1.0,89,0.00,,---,0.00,VWS V13.01,2013-05-05 06:10:00,
2013-05-05 01:15:00,42.1,39.1,30.00,NNW,336,0.0,2.0,89,0.00,,---,0.00,VWS V13.01,2013-05-05 06:15:00,
2013-05-05 01:20:00,41.9,38.9,30.00,NNW,336,0.0,2.0,89,0.00,,---,0.00,VWS V13.01,2013-05-05 06:20:00,
2013-05-05 01:25:00,41.8,38.8,30.00,NNW,336,0.0,2.0,89,0.00,,---,0.00,VWS V13.01,2013-05-05 06:25:00,
2013-05-05 01:30:00,41.7,38.7,30.00,NNW,333,0.0,3.0,89,0.00,,---,0.00,VWS V13.01,2013-05-05 06:30:00,
2013-05-05 01:35:00,41.6,38.6,29.99,NW,319,0.0,4.0,89,0.00,,---,0.00,VWS V13.01,2013-05-05 06:35:00,
2013-05-05 01:40:00,41.5,38.5,29.99,NNW,332,0.0,3.0,89,0.00,,---,0.00,VWS V13.01,2013-05-05 06:40:00,
2013-05-05 01:45:00,41.4,38.4,29.99,NW,306,1.0,3.0,89,0.00,,---,0.00,VWS V13.01,2013-05-05 06:45:00,
2013-05-05 01:50:00,41.3,38.3,30.00,NW,325,0.0,5.0,89,0.00,,---,0.00,VWS V13.01,2013-05-05 06:50:00,
2013-05-05 01:55:00,41.3,38.3,30.00,NW,326,0.0,5.0,89,0.00,,---,0.00,VWS V13.01,2013-05-05 06:55:00,
2013-05-05 02:00:00,41.2,38.2,30.00,NW,326,0.0,5.0,89,0.00,,---,0.00,VWS V13.01,2013-05-05 07:00:00,
2013-05-05 02:05:00,41.1,38.1,30.00,NW,325,0.0,5.0,89,0.00,,---,0.00,VWS V13.01,2013-05-05 07:05:00,
2013-05-05 02:11:00,41.0,38.0,30.00,NW,325,0.0,0.0,89,0.00,,---,0.00,VWS V13.01,2013-05-05 07:11:00,
2013-05-05 02:16:00,41.0,38.0,30.00,NW,325,0.0,0.0,89,0.00,,---,0.00,VWS V13.01,2013-05-05 07:16:00,
2013-05-05 02:21:00,40.9,37.9,30.00,NW,325,0.0,0.0,89,0.00,,---,0.00,VWS V13.01,2013-05-05 07:21:00,
2013-05-05 02:26:00,40.9,37.9,30.00,NW,325,0.0,1.0,89,0.00,,---,0.00,VWS V13.01,2013-05-05 07:26:00,
2013-05-05 02:31:00,40.8,37.8,30.00,WNW,299,0.0,5.0,89,0.00,,---,0.00,VWS V13.01,2013-05-05 07:31:00,
2013-05-05 02:36:00,40.8,37.8,30.00,NW,323,0.0,5.0,89,0.00,,---,0.00,VWS V13.01,2013-05-05 07:36:00,
2013-05-05 02:41:00,40.8,38.1,30.00,NNW,329,2.0,3.0,90,0.00,,---,0.00,VWS V13.01,2013-05-05 07:41:00,
2013-05-05 02:46:00,40.8,38.1,30.00,NW,325,0.0,3.0,90,0.00,,---,0.00,VWS V13.01,2013-05-05 07:46:00,
2013-05-05 02:51:00,40.9,38.2,30.00,NNW,335,0.0,6.0,90,0.00,,---,0.00,VWS V13.01,2013-05-05 07:51:00,
2013-05-05 02:56:00,40.9,38.2,30.00,NNW,331,0.0,6.0,90,0.00,,---,0.00,VWS V13.01,2013-05-05 07:56:00,
2013-05-05 03:01:00,40.9,38.2,30.00,WNW,297,0.0,6.0,90,0.00,,---,0.00,VWS V13.01,2013-05-05 08:01:00,
2013-05-05 03:06:00,40.9,38.2,30.00,WNW,300,0.0,6.0,90,0.00,,---,0.00,VWS V13.01,2013-05-05 08:06:00,
2013-05-05 03:12:00,40.9,38.2,30.00,NNW,340,0.0,6.0,90,0.00,,---,0.00,VWS V13.01,2013-05-05 08:12:00,
2013-05-05 03:17:00,40.8,38.1,30.00,NNW,344,0.0,6.0,90,0.00,,---,0.00,VWS V13.01,2013-05-05 08:17:00,
2013-05-05 03:22:00,40.8,38.1,29.99,NNW,329,0.0,7.0,90,0.00,,---,0.00,VWS V13.01,2013-05-05 08:22:00,
2013-05-05 03:27:00,40.7,38.0,29.99,NNW,329,0.0,7.0,90,0.00,,---,0.00,VWS V13.01,2013-05-05 08:27:00,
2013-05-05 03:32:00,40.6,37.9,30.00,WNW,301,0.0,7.0,90,0.00,,---,0.00,VWS V13.01,2013-05-05 08:32:00,
2013-05-05 03:37:00,40.6,37.9,30.00,NNW,331,0.0,1.0,90,0.00,,---,0.00,VWS V13.01,2013-05-05 08:37:00,
2013-05-05 03:42:00,40.6,37.9,29.99,WNW,288,2.0,4.0,90,0.00,,---,0.00,VWS V13.01,2013-05-05 08:42:00,
2013-05-05 03:47:00,40.5,38.1,30.00,NW,310,5.0,5.0,91,0.00,,---,0.00,VWS V13.01,2013-05-05 08:47:00,
2013-05-05 03:52:00,40.5,37.8,30.00,WNW,300,3.0,10.0,90,0.00,,---,0.00,VWS V13.01,2013-05-05 08:52:00,
2013-05-05 03:57:00,40.5,38.1,30.00,NW,319,0.0,10.0,91,0.00,,---,0.00,VWS V13.01,2013-05-05 08:57:00,
2013-05-05 04:02:00,40.5,38.1,30.00,NNW,341,0.0,10.0,91,0.00,,---,0.00,VWS V13.01,2013-05-05 09:02:00,
2013-05-05 04:07:00,40.5,38.1,30.00,NNW,339,2.0,2.0,91,0.00,,---,0.00,VWS V13.01,2013-05-05 09:07:00,
2013-05-05 04:12:00,40.5,38.1,30.00,NNW,348,0.0,6.0,91,0.00,,---,0.00,VWS V13.01,2013-05-05 09:12:00,
2013-05-05 04:17:00,40.5,38.1,30.00,NW,318,0.0,6.0,91,0.00,,---,0.00,VWS V13.01,2013-05-05 09:17:00,
2013-05-05 04:22:00,40.4,38.0,30.00,NW,321,0.0,6.0,91,0.00,,---,0.00,VWS V13.01,2013-05-05 09:22:00,
2013-05-05 04:27:00,40.4,38.0,30.00,WNW,289,0.0,6.0,91,0.00,,---,0.00,VWS V13.01,2013-05-05 09:27:00,
2013-05-05 04:33:00,40.3,37.9,30.00,WNW,290,3.0,6.0,91,0.00,,---,0.00,VWS V13.01,2013-05-05 09:33:00,
2013-05-05 04:38:00,40.3,37.9,30.01,WNW,302,0.0,0.0,91,0.00,,---,0.00,VWS V13.01,2013-05-05 09:38:00,
2013-05-05 04:43:00,40.3,37.9,30.00,NW,313,0.0,5.0,91,0.00,,---,0.00,VWS V13.01,2013-05-05 09:43:00,
2013-05-05 04:48:00,40.2,37.8,30.01,North,350,0.0,6.0,91,0.00,,---,0.00,VWS V13.01,2013-05-05 09:48:00,
2013-05-05 04:53:00,40.2,37.8,30.01,WNW,301,0.0,6.0,91,0.00,,---,0.00,VWS V13.01,2013-05-05 09:53:00,
2013-05-05 04:58:00,40.1,37.7,30.01,NW,323,0.0,6.0,91,0.00,,---,0.00,VWS V13.01,2013-05-05 09:58:00,
2013-05-05 05:03:00,40.1,37.7,30.01,North,355,4.0,8.0,91,0.00,,---,0.00,VWS V13.01,2013-05-05 10:03:00,
2013-05-05 05:09:00,40.0,37.6,30.02,NW,311,0.0,4.0,91,0.00,,---,0.00,VWS V13.01,2013-05-05 10:09:00,
2013-05-05 05:14:00,40.0,37.9,30.02,NW,311,0.0,4.0,92,0.00,,---,0.00,VWS V13.01,2013-05-05 10:14:00,
2013-05-05 05:19:00,40.0,37.9,30.02,WNW,290,0.0,4.0,92,0.00,,---,0.00,VWS V13.01,2013-05-05 10:19:00,
2013-05-05 05:24:00,39.9,37.8,30.02,NNW,338,0.0,4.0,92,0.00,,---,0.00,VWS V13.01,2013-05-05 10:24:00,
2013-05-05 05:29:00,39.8,37.7,30.01,NNW,342,2.0,4.0,92,0.00,,---,0.00,VWS V13.01,2013-05-05 10:29:00,
2013-05-05 05:34:00,39.8,37.7,30.01,NW,319,0.0,4.0,92,0.00,,---,0.00,VWS V13.01,2013-05-05 10:34:00,
2013-05-05 05:39:00,39.8,37.7,30.01,North,5,0.0,2.0,92,0.00,,---,0.00,VWS V13.01,2013-05-05 10:39:00,
2013-05-05 05:44:00,39.8,37.7,30.01,NNW,348,0.0,2.0,92,0.00,,---,0.00,VWS V13.01,2013-05-05 10:44:00,
2013-05-05 05:49:00,39.8,37.7,30.01,North,360,0.0,5.0,92,0.00,,---,0.00,VWS V13.01,2013-05-05 10:49:00,
2013-05-05 05:54:00,39.7,37.6,30.01,North,5,0.0,5.0,92,0.00,,---,0.00,VWS V13.01,2013-05-05 10:54:00,
2013-05-05 06:00:00,39.7,37.6,30.01,NW,312,0.0,5.0,92,0.00,,---,0.00,VWS V13.01,2013-05-05 11:00:00,
2013-05-05 06:05:00,39.7,37.6,30.02,NW,312,2.0,7.0,92,0.00,,---,0.00,VWS V13.01,2013-05-05 11:05:00,
2013-05-05 06:10:00,39.7,37.6,30.02,NW,307,2.0,3.0,92,0.00,,---,0.00,VWS V13.01,2013-05-05 11:10:00,
2013-05-05 06:15:00,39.7,37.6,30.02,NNE,29,0.0,4.0,92,0.00,,---,0.00,VWS V13.01,2013-05-05 11:15:00,
2013-05-05 06:20:00,39.6,37.5,30.02,WNW,293,0.0,4.0,92,0.00,,---,0.00,VWS V13.01,2013-05-05 11:20:00,
2013-05-05 06:25:00,39.5,37.4,30.02,NNW,329,0.0,6.0,92,0.00,,---,0.00,VWS V13.01,2013-05-05 11:25:00,
2013-05-05 06:30:00,39.5,37.4,30.02,NW,317,0.0,6.0,92,0.00,,---,0.00,VWS V13.01,2013-05-05 11:30:00,
2013-05-05 06:35:00,39.4,37.3,30.03,WNW,300,0.0,6.0,92,0.00,,---,0.00,VWS V13.01,2013-05-05 11:35:00,
2013-05-05 06:40:00,39.4,37.3,30.03,WNW,301,0.0,0.0,92,0.00,,---,0.00,VWS V13.01,2013-05-05 11:40:00,
2013-05-05 06:45:00,39.4,37.3,30.04,NW,311,3.0,5.0,92,0.00,,---,0.00,VWS V13.01,2013-05-05 11:45:00,
2013-05-05 06:50:00,39.5,37.4,30.04,NW,310,0.0,5.0,92,0.00,,---,0.00,VWS V13.01,2013-05-05 11:50:00,
2013-05-05 06:55:00,39.6,37.5,30.04,WNW,302,2.0,5.0,92,0.00,,---,0.00,VWS V13.01,2013-05-05 11:55:00,
2013-05-05 07:00:00,39.7,37.6,30.04,NW,304,1.0,6.0,92,0.00,,---,0.00,VWS V13.01,2013-05-05 12:00:00,
2013-05-05 07:06:00,39.8,38.0,30.04,WNW,286,0.0,6.0,93,0.00,,---,0.00,VWS V13.01,2013-05-05 12:06:00,
2013-05-05 07:11:00,40.0,38.1,30.05,NW,311,0.0,4.0,93,0.00,,---,0.00,VWS V13.01,2013-05-05 12:11:00,
2013-05-05 07:16:00,40.2,38.3,30.05,NW,314,0.0,5.0,93,0.00,,---,0.00,VWS V13.01,2013-05-05 12:16:00,
2013-05-05 07:21:00,40.4,38.5,30.05,WNW,288,0.0,5.0,93,0.00,,---,0.00,VWS V13.01,2013-05-05 12:21:00,
2013-05-05 07:26:00,40.7,38.8,30.05,WNW,302,4.0,6.0,93,0.00,,---,0.00,VWS V13.01,2013-05-05 12:26:00,
2013-05-05 07:31:00,40.8,38.9,30.05,NNW,344,0.0,10.0,93,0.00,,---,0.00,VWS V13.01,2013-05-05 12:31:00,
2013-05-05 07:36:00,40.8,38.9,30.06,North,355,2.0,10.0,93,0.00,,---,0.00,VWS V13.01,2013-05-05 12:36:00,
2013-05-05 07:41:00,40.9,39.0,30.06,NNW,336,0.0,6.0,93,0.00,,---,0.00,VWS V13.01,2013-05-05 12:41:00,
2013-05-05 07:46:00,41.0,39.1,30.06,West,273,1.0,10.0,93,0.00,,---,0.00,VWS V13.01,2013-05-05 12:46:00,
2013-05-05 07:51:00,41.1,39.2,30.06,NW,308,0.0,10.0,93,0.00,,---,0.00,VWS V13.01,2013-05-05 12:51:00,
2013-05-05 07:56:00,41.4,39.5,30.06,NW,307,0.0,10.0,93,0.00,,---,0.00,VWS V13.01,2013-05-05 12:56:00,
2013-05-05 08:01:00,41.6,39.7,30.06,WNW,292,0.0,10.0,93,0.00,,---,0.00,VWS V13.01,2013-05-05 13:01:00,
2013-05-05 08:06:00,41.8,39.9,30.06,West,264,0.0,10.0,93,0.00,,---,0.00,VWS V13.01,2013-05-05 13:06:00,
2013-05-05 08:11:00,42.1,40.2,30.06,WNW,298,0.0,10.0,93,0.00,,---,0.00,VWS V13.01,2013-05-05 13:11:00,
2013-05-05 08:16:00,42.3,40.4,30.07,North,5,2.0,10.0,93,0.00,,---,0.00,VWS V13.01,2013-05-05 13:16:00,
2013-05-05 08:21:00,42.5,40.6,30.07,NNW,327,4.0,12.0,93,0.00,,---,0.00,VWS V13.01,2013-05-05 13:21:00,
2013-05-05 08:26:00,42.8,40.9,30.07,NW,317,0.0,12.0,93,0.00,,---,0.00,VWS V13.01,2013-05-05 13:26:00,
2013-05-05 08:31:00,43.1,41.2,30.07,NNW,346,3.0,14.0,93,0.00,,---,0.00,VWS V13.01,2013-05-05 13:31:00,
2013-05-05 08:36:00,43.2,41.3,30.07,NW,315,3.0,7.0,93,0.00,,---,0.00,VWS V13.01,2013-05-05 13:36:00,
2013-05-05 08:41:00,43.3,41.1,30.07,WNW,301,3.0,12.0,92,0.00,,---,0.00,VWS V13.01,2013-05-05 13:41:00,
2013-05-05 08:46:00,43.5,41.3,30.08,NNW,330,0.0,12.0,92,0.00,,---,0.00,VWS V13.01,2013-05-05 13:46:00,
2013-05-05 08:51:00,43.7,41.5,30.08,NNW,338,0.0,12.0,92,0.00,,---,0.00,VWS V13.01,2013-05-05 13:51:00,
2013-05-05 08:57:00,43.9,41.7,30.08,NW,313,6.0,12.0,92,0.00,,---,0.00,VWS V13.01,2013-05-05 13:57:00,
2013-05-05 09:02:00,44.1,41.7,30.08,NNW,339,0.0,12.0,91,0.00,,---,0.00,VWS V13.01,2013-05-05 14:02:00,
2013-05-05 09:07:00,44.4,41.9,30.08,NNE,17,1.0,1.0,91,0.00,,---,0.00,VWS V13.01,2013-05-05 14:07:00,
2013-05-05 09:12:00,44.5,42.0,30.08,WNW,300,2.0,8.0,91,0.00,,---,0.00,VWS V13.01,2013-05-05 14:12:00,
2013-05-05 09:17:00,44.9,42.2,30.08,NW,323,0.0,8.0,90,0.00,,---,0.00,VWS V13.01,2013-05-05 14:17:00,
2013-05-05 09:22:00,45.0,42.2,30.08,NNW,329,0.0,8.0,90,0.00,,---,0.00,VWS V13.01,2013-05-05 14:22:00,
2013-05-05 09:27:00,45.4,42.3,30.08,NNW,337,0.0,9.0,89,0.00,,---,0.00,VWS V13.01,2013-05-05 14:27:00,
2013-05-05 09:32:00,45.8,42.8,30.08,WNW,295,0.0,9.0,89,0.00,,---,0.00,VWS V13.01,2013-05-05 14:32:00,
2013-05-05 09:37:00,46.4,43.3,30.08,NNW,340,0.0,3.0,89,0.00,,---,0.00,VWS V13.01,2013-05-05 14:37:00,
2013-05-05 09:43:00,46.7,43.0,30.08,NW,306,0.0,6.0,87,0.00,,---,0.00,VWS V13.01,2013-05-05 14:43:00,
2013-05-05 09:48:00,47.1,43.4,30.08,NNW,335,5.0,11.0,87,0.00,,---,0.00,VWS V13.01,2013-05-05 14:48:00,
2013-05-05 09:53:00,47.2,42.9,30.08,NW,315,0.0,11.0,85,0.00,,---,0.00,VWS V13.01,2013-05-05 14:53:00,
2013-05-05 09:58:00,47.5,43.2,30.08,NW,304,6.0,11.0,85,0.00,,---,0.00,VWS V13.01,2013-05-05 14:58:00,
2013-05-05 10:03:00,47.9,43.3,30.08,NW,317,4.0,11.0,84,0.00,,---,0.00,VWS V13.01,2013-05-05 15:03:00,
2013-05-05 10:08:00,48.0,42.8,30.08,NNW,340,0.0,2.0,82,0.00,,---,0.00,VWS V13.01,2013-05-05 15:08:00,
2013-05-05 10:13:00,48.2,43.3,30.08,NW,310,3.0,7.0,83,0.00,,---,0.00,VWS V13.01,2013-05-05 15:13:00,
2013-05-05 10:18:00,48.4,42.8,30.08,West,281,0.0,10.0,81,0.00,,---,0.00,VWS V13.01,2013-05-05 15:18:00,
2013-05-05 10:23:00,48.4,42.8,30.08,WNW,290,0.0,10.0,81,0.00,,---,0.00,VWS V13.01,2013-05-05 15:23:00,
2013-05-05 10:28:00,48.7,43.1,30.08,WNW,296,7.0,10.0,81,0.00,,---,0.00,VWS V13.01,2013-05-05 15:28:00,
2013-05-05 10:33:00,49.0,43.4,30.07,NW,304,3.0,14.0,81,0.00,,---,0.00,VWS V13.01,2013-05-05 15:33:00,
2013-05-05 10:38:00,49.0,42.8,30.08,NW,321,12.0,13.0,79,0.00,,---,0.00,VWS V13.01,2013-05-05 15:38:00,
2013-05-05 10:43:00,49.0,42.8,30.08,West,275,0.0,13.0,79,0.00,,---,0.00,VWS V13.01,2013-05-05 15:43:00,
2013-05-05 10:48:00,49.4,43.5,30.09,NNW,328,5.0,14.0,80,0.00,,---,0.00,VWS V13.01,2013-05-05 15:48:00,
2013-05-05 10:53:00,49.7,43.5,30.08,West,279,1.0,14.0,79,0.00,,---,0.00,VWS V13.01,2013-05-05 15:53:00,
2013-05-05 10:58:00,49.9,43.7,30.08,NW,307,0.0,14.0,79,0.00,,---,0.00,VWS V13.01,2013-05-05 15:58:00,
2013-05-05 11:03:00,50.6,44.0,30.08,WSW,249,6.0,14.0,78,0.00,,---,0.00,VWS V13.01,2013-05-05 16:03:00,
2013-05-05 11:08:00,50.8,43.9,30.08,West,272,7.0,11.0,77,0.00,,---,0.00,VWS V13.01,2013-05-05 16:08:00,
2013-05-05 11:14:00,51.4,44.8,30.09,NW,310,1.0,12.0,78,0.00,,---,0.00,VWS V13.01,2013-05-05 16:14:00,
2013-05-05 11:19:00,51.7,44.0,30.09,West,277,5.0,16.0,75,0.00,,---,0.00,VWS V13.01,2013-05-05 16:19:00,
2013-05-05 11:24:00,52.0,44.7,30.08,NW,313,4.0,16.0,76,0.00,,---,0.00,VWS V13.01,2013-05-05 16:24:00,
2013-05-05 11:29:00,52.3,44.6,30.08,NW,312,0.0,16.0,75,0.00,,---,0.00,VWS V13.01,2013-05-05 16:29:00,
2013-05-05 11:34:00,52.6,44.9,30.08,WNW,302,9.0,16.0,75,0.00,,---,0.00,VWS V13.01,2013-05-05 16:34:00,
2013-05-05 11:39:00,52.7,44.3,30.08,WNW,298,0.0,11.0,73,0.00,,---,0.00,VWS V13.01,2013-05-05 16:39:00,
2013-05-05 11:44:00,53.0,45.3,30.08,NNW,340,0.0,11.0,75,0.00,,---,0.00,VWS V13.01,2013-05-05 16:44:00,
2013-05-05 11:49:00,53.4,45.0,30.08,NW,321,0.0,11.0,73,0.00,,---,0.00,VWS V13.01,2013-05-05 16:49:00,
2013-05-05 11:54:00,53.3,44.9,30.08,NW,318,3.0,13.0,73,0.00,,---,0.00,VWS V13.01,2013-05-05 16:54:00,
2013-05-05 11:59:00,53.7,45.3,30.07,NW,321,5.0,13.0,73,0.00,,---,0.00,VWS V13.01,2013-05-05 16:59:00,
2013-05-05 12:04:00,54.1,45.3,30.07,West,281,13.0,13.0,72,0.00,,---,0.00,VWS V13.01,2013-05-05 17:04:00,
2013-05-05 12:09:00,54.5,45.3,30.07,NW,304,18.0,18.0,71,0.00,,---,0.00,VWS V13.01,2013-05-05 17:09:00,
2013-05-05 12:14:00,54.7,45.1,30.07,NNW,339,0.0,18.0,70,0.00,,---,0.00,VWS V13.01,2013-05-05 17:14:00,
2013-05-05 12:20:00,54.9,45.3,30.06,WNW,284,1.0,18.0,70,0.00,,---,0.00,VWS V13.01,2013-05-05 17:20:00,
2013-05-05 12:25:00,55.1,45.5,30.06,NNW,344,0.0,18.0,70,0.00,,---,0.00,VWS V13.01,2013-05-05 17:25:00,
2013-05-05 12:30:00,55.7,46.5,30.06,NNW,329,2.0,18.0,71,0.00,,---,0.00,VWS V13.01,2013-05-05 17:30:00,
2013-05-05 12:35:00,56.1,44.9,30.06,WNW,299,0.0,18.0,66,0.00,,---,0.00,VWS V13.01,2013-05-05 17:35:00,
2013-05-05 12:40:00,56.3,46.3,30.06,NW,309,3.0,12.0,69,0.00,,---,0.00,VWS V13.01,2013-05-05 17:40:00,
2013-05-05 12:45:00,56.3,45.1,30.06,NNW,336,0.0,12.0,66,0.00,,---,0.00,VWS V13.01,2013-05-05 17:45:00,
2013-05-05 12:50:00,55.7,44.5,30.06,NNW,329,5.0,14.0,66,0.00,,---,0.00,VWS V13.01,2013-05-05 17:50:00,
2013-05-05 12:55:00,56.0,45.6,30.05,NNW,344,0.0,14.0,68,0.00,,---,0.00,VWS V13.01,2013-05-05 17:55:00,
2013-05-05 13:00:00,56.9,46.1,30.05,WNW,290,1.0,14.0,67,0.00,,---,0.00,VWS V13.01,2013-05-05 18:00:00,
2013-05-05 13:05:00,57.2,44.7,30.05,WNW,288,4.0,16.0,63,0.00,,---,0.00,VWS V13.01,2013-05-05 18:05:00,
2013-05-05 13:10:00,57.6,45.5,30.05,NNW,331,5.0,13.0,64,0.00,,---,0.00,VWS V13.01,2013-05-05 18:10:00,
2013-05-05 13:15:00,56.8,45.6,30.05,North,355,3.0,15.0,66,0.00,,---,0.00,VWS V13.01,2013-05-05 18:15:00,
2013-05-05 13:20:00,57.0,45.4,30.05,WNW,299,0.0,15.0,65,0.00,,---,0.00,VWS V13.01,2013-05-05 18:20:00,
2013-05-05 13:25:00,56.8,44.3,30.05,NW,304,3.0,16.0,63,0.00,,---,0.00,VWS V13.01,2013-05-05 18:25:00,
2013-05-05 13:30:00,57.2,45.2,30.05,West,269,0.0,16.0,64,0.00,,---,0.00,VWS V13.01,2013-05-05 18:30:00,
2013-05-05 13:35:00,57.1,44.2,30.05,NW,307,2.0,16.0,62,0.00,,---,0.00,VWS V13.01,2013-05-05 18:35:00,
2013-05-05 13:40:00,57.9,45.8,30.05,NW,307,2.0,15.0,64,0.00,,---,0.00,VWS V13.01,2013-05-05 18:40:00,
2013-05-05 13:45:00,58.0,45.9,30.05,WSW,252,2.0,15.0,64,0.00,,---,0.00,VWS V13.01,2013-05-05 18:45:00,
2013-05-05 13:50:00,57.7,44.4,30.04,North,360,2.0,15.0,61,0.00,,---,0.00,VWS V13.01,2013-05-05 18:50:00,
2013-05-05 13:55:00,58.5,45.5,30.03,WSW,254,3.0,15.0,62,0.00,,---,0.00,VWS V13.01,2013-05-05 18:55:00,
2013-05-05 14:00:00,58.9,45.9,30.04,NNW,344,8.0,15.0,62,0.00,,---,0.00,VWS V13.01,2013-05-05 19:00:00,
2013-05-05 14:06:00,58.7,45.3,30.04,NW,326,3.0,15.0,61,0.00,,---,0.00,VWS V13.01,2013-05-05 19:06:00,
2013-05-05 14:11:00,58.9,45.5,30.03,NW,306,4.0,12.0,61,0.00,,---,0.00,VWS V13.01,2013-05-05 19:11:00,
2013-05-05 14:16:00,59.3,45.4,30.03,NNW,338,1.0,13.0,60,0.00,,---,0.00,VWS V13.01,2013-05-05 19:16:00,
2013-05-05 14:21:00,59.8,45.9,30.03,West,259,12.0,14.0,60,0.00,,---,0.00,VWS V13.01,2013-05-05 19:21:00,
2013-05-05 14:26:00,60.3,46.8,30.02,NW,309,0.0,14.0,61,0.00,,---,0.00,VWS V13.01,2013-05-05 19:26:00,
2013-05-05 14:31:00,60.9,45.6,30.02,West,268,4.0,16.0,57,0.00,,---,0.00,VWS V13.01,2013-05-05 19:31:00,
2013-05-05 14:36:00,60.4,44.7,30.02,WNW,298,0.0,16.0,56,0.00,,---,0.00,VWS V13.01,2013-05-05 19:36:00,
2013-05-05 14:41:00,60.7,45.8,30.02,WNW,287,2.0,9.0,58,0.00,,---,0.00,VWS V13.01,2013-05-05 19:41:00,
2013-05-05 14:46:00,61.2,45.9,30.02,NW,309,4.0,11.0,57,0.00,,---,0.00,VWS V13.01,2013-05-05 19:46:00,
2013-05-05 14:51:00,61.3,46.9,30.02,WNW,291,5.0,11.0,59,0.00,,---,0.00,VWS V13.01,2013-05-05 19:51:00,
2013-05-05 14:56:00,61.3,46.0,30.02,NNW,341,9.0,13.0,57,0.00,,---,0.00,VWS V13.01,2013-05-05 19:56:00,
2013-05-05 15:01:00,61.1,46.7,30.02,WNW,290,7.0,13.0,59,0.00,,---,0.00,VWS V13.01,2013-05-05 20:01:00,
2013-05-05 15:06:00,61.4,46.0,30.01,West,260,2.0,3.0,57,0.00,,---,0.00,VWS V13.01,2013-05-05 20:06:00,
2013-05-05 15:11:00,61.3,46.4,30.01,NW,309,0.0,13.0,58,0.00,,---,0.00,VWS V13.01,2013-05-05 20:11:00,
2013-05-05 15:16:00,62.4,47.9,30.01,West,265,0.0,13.0,59,0.00,,---,0.00,VWS V13.01,2013-05-05 20:16:00,
2013-05-05 15:21:00,62.3,46.9,30.01,WNW,302,0.0,14.0,57,0.00,,---,0.00,VWS V13.01,2013-05-05 20:21:00,
2013-05-05 15:26:00,62.0,47.1,30.01,NW,310,1.0,14.0,58,0.00,,---,0.00,VWS V13.01,2013-05-05 20:26:00,
2013-05-05 15:31:00,62.4,47.9,30.01,West,269,5.0,14.0,59,0.00,,---,0.00,VWS V13.01,2013-05-05 20:31:00,
2013-05-05 15:36:00,62.4,46.5,30.00,NW,321,1.0,4.0,56,0.00,,---,0.00,VWS V13.01,2013-05-05 20:36:00,
2013-05-05 15:41:00,62.3,46.4,30.00,West,265,4.0,12.0,56,0.00,,---,0.00,VWS V13.01,2013-05-05 20:41:00,
2013-05-05 15:46:00,62.3,45.5,30.00,NW,318,11.0,14.0,54,0.00,,---,0.00,VWS V13.01,2013-05-05 20:46:00,
2013-05-05 15:51:00,62.4,45.5,30.00,WNW,286,0.0,19.0,54,0.00,,---,0.00,VWS V13.01,2013-05-05 20:51:00,
2013-05-05 15:57:00,62.8,46.9,29.99,WNW,289,1.0,19.0,56,0.00,,---,0.00,VWS V13.01,2013-05-05 20:57:00,
2013-05-05 16:02:00,62.5,45.7,29.99,West,276,6.0,19.0,54,0.00,,---,0.00,VWS V13.01,2013-05-05 21:02:00,
2013-05-05 16:07:00,62.7,46.8,29.99,North,350,0.0,9.0,56,0.00,,---,0.00,VWS V13.01,2013-05-05 21:07:00,
2013-05-05 16:12:00,63.5,47.5,29.99,West,280,0.0,11.0,56,0.00,,---,0.00,VWS V13.01,2013-05-05 21:12:00,
2013-05-05 16:17:00,63.1,46.7,29.99,North,355,0.0,16.0,55,0.00,,---,0.00,VWS V13.01,2013-05-05 21:17:00,
2013-05-05 16:22:00,63.0,47.5,29.99,NNW,346,2.0,16.0,57,0.00,,---,0.00,VWS V13.01,2013-05-05 21:22:00,
2013-05-05 16:27:00,63.6,48.1,29.98,WNW,287,3.0,16.0,57,0.00,,---,0.00,VWS V13.01,2013-05-05 21:27:00,
2013-05-05 16:32:00,63.5,46.6,29.98,WNW,296,7.0,16.0,54,0.00,,---,0.00,VWS V13.01,2013-05-05 21:32:00,
2013-05-05 16:37:00,63.0,46.6,29.98,WNW,298,0.0,4.0,55,0.00,,---,0.00,VWS V13.01,2013-05-05 21:37:00,
2013-05-05 16:42:00,62.9,46.5,29.98,NW,304,7.0,7.0,55,0.00,,---,0.00,VWS V13.01,2013-05-05 21:42:00,
2013-05-05 16:47:00,62.7,46.8,29.98,WNW,298,1.0,12.0,56,0.00,,---,0.00,VWS V13.01,2013-05-05 21:47:00,
2013-05-05 16:52:00,62.5,46.6,29.98,NW,325,0.0,12.0,56,0.00,,---,0.00,VWS V13.01,2013-05-05 21:52:00,
2013-05-05 16:57:00,62.9,47.9,29.98,WNW,286,11.0,12.0,58,0.00,,---,0.00,VWS V13.01,2013-05-05 21:57:00,
2013-05-05 17:02:00,63.1,47.2,29.98,WNW,300,1.0,12.0,56,0.00,,---,0.00,VWS V13.01,2013-05-05 22:02:00,
2013-05-05 17:07:00,63.2,47.7,29.98,NNW,338,1.0,2.0,57,0.00,,---,0.00,VWS V13.01,2013-05-05 22:07:00,
2013-05-05 17:12:00,63.1,47.6,29.98,NW,314,4.0,9.0,57,0.00,,---,0.00,VWS V13.01,2013-05-05 22:12:00,
2013-05-05 17:17:00,62.9,47.5,29.98,WNW,284,0.0,9.0,57,0.00,,---,0.00,VWS V13.01,2013-05-05 22:17:00,
2013-05-05 17:22:00,62.9,47.0,29.98,WNW,294,0.0,9.0,56,0.00,,---,0.00,VWS V13.01,2013-05-05 22:22:00,
2013-05-05 17:27:00,62.8,46.9,29.98,NW,307,0.0,9.0,56,0.00,,---,0.00,VWS V13.01,2013-05-05 22:27:00,
2013-05-05 17:32:00,62.9,47.9,29.98,NW,309,1.0,9.0,58,0.00,,---,0.00,VWS V13.01,2013-05-05 22:32:00,
2013-05-05 17:37:00,62.8,46.9,29.98,WNW,295,0.0,10.0,56,0.00,,---,0.00,VWS V13.01,2013-05-05 22:37:00,
2013-05-05 17:42:00,62.6,47.6,29.98,WNW,296,0.0,10.0,58,0.00,,---,0.00,VWS V13.01,2013-05-05 22:42:00,
2013-05-05 17:47:00,62.5,47.1,29.98,North,5,0.0,10.0,57,0.00,,---,0.00,VWS V13.01,2013-05-05 22:47:00,
2013-05-05 17:52:00,62.5,47.1,29.98,NNW,338,0.0,10.0,57,0.00,,---,0.00,VWS V13.01,2013-05-05 22:52:00,
2013-05-05 17:57:00,62.4,47.0,29.99,NW,319,2.0,10.0,57,0.00,,---,0.00,VWS V13.01,2013-05-05 22:57:00,
2013-05-05 18:03:00,62.2,47.3,29.99,NNW,331,0.0,10.0,58,0.00,,---,0.00,VWS V13.01,2013-05-05 23:03:00,
2013-05-05 18:08:00,62.0,46.6,29.99,NNW,331,0.0,1.0,57,0.00,,---,0.00,VWS V13.01,2013-05-05 23:08:00,
2013-05-05 18:13:00,61.8,47.3,29.99,NNW,331,0.0,1.0,59,0.00,,---,0.00,VWS V13.01,2013-05-05 23:13:00,
2013-05-05 18:18:00,61.6,47.2,29.99,NNW,331,0.0,1.0,59,0.00,,---,0.00,VWS V13.01,2013-05-05 23:18:00,
2013-05-05 18:23:00,61.4,47.4,29.99,NNW,332,0.0,1.0,60,0.00,,---,0.00,VWS V13.01,2013-05-05 23:23:00,
2013-05-05 18:28:00,61.3,47.8,29.99,NNW,332,0.0,1.0,61,0.00,,---,0.00,VWS V13.01,2013-05-05 23:28:00,
2013-05-05 18:33:00,61.3,47.8,29.99,NNW,332,0.0,1.0,61,0.00,,---,0.00,VWS V13.01,2013-05-05 23:33:00,
2013-05-05 18:38:00,61.3,49.0,29.99,NNW,331,0.0,0.0,64,0.00,,---,0.00,VWS V13.01,2013-05-05 23:38:00,
2013-05-05 18:43:00,61.2,48.9,29.99,NNW,331,0.0,1.0,64,0.00,,---,0.00,VWS V13.01,2013-05-05 23:43:00,
2013-05-05 18:48:00,61.2,48.9,29.99,NNW,331,0.0,1.0,64,0.00,,---,0.00,VWS V13.01,2013-05-05 23:48:00,
2013-05-05 18:53:00,61.3,48.6,29.99,NNW,331,0.0,1.0,63,0.00,,---,0.00,VWS V13.01,2013-05-05 23:53:00,
2013-05-05 18:58:00,61.5,47.9,29.99,NNW,331,0.0,1.0,61,0.00,,---,0.00,VWS V13.01,2013-05-05 23:58:00,
2013-05-05 19:03:00,61.8,48.7,29.99,NNW,331,0.0,1.0,62,0.00,,---,0.00,VWS V13.01,2013-05-06 00:03:00,
2013-05-05 19:08:00,61.8,47.8,29.99,NNW,331,0.0,0.0,60,0.00,,---,0.00,VWS V13.01,2013-05-06 00:08:00,
2013-05-05 19:14:00,61.7,49.0,29.98,NNW,331,0.0,0.0,63,0.00,,---,0.00,VWS V13.01,2013-05-06 00:14:00,
2013-05-05 19:19:00,61.5,48.4,29.99,NNW,331,0.0,1.0,62,0.00,,---,0.00,VWS V13.01,2013-05-06 00:19:00,
2013-05-05 19:24:00,61.4,48.7,29.99,NNW,331,0.0,1.0,63,0.00,,---,0.00,VWS V13.01,2013-05-06 00:24:00,
2013-05-05 19:29:00,61.1,48.8,29.99,NNW,331,0.0,1.0,64,0.00,,---,0.00,VWS V13.01,2013-05-06 00:29:00,
2013-05-05 19:34:00,60.8,49.4,29.99,NNW,331,0.0,2.0,66,0.00,,---,0.00,VWS V13.01,2013-05-06 00:34:00,
2013-05-05 19:39:00,60.5,49.1,29.99,NNW,331,0.0,1.0,66,0.00,,---,0.00,VWS V13.01,2013-05-06 00:39:00,
2013-05-05 19:44:00,60.2,49.2,29.99,NNW,331,0.0,1.0,67,0.00,,---,0.00,VWS V13.01,2013-05-06 00:44:00,
2013-05-05 19:49:00,60.0,49.4,29.99,NNW,331,0.0,1.0,68,0.00,,---,0.00,VWS V13.01,2013-05-06 00:49:00,
2013-05-05 19:54:00,59.7,48.7,29.99,NNW,331,0.0,1.0,67,0.00,,---,0.00,VWS V13.01,2013-05-06 00:54:00,
2013-05-05 19:59:00,59.3,48.8,29.99,NW,326,0.0,2.0,68,0.00,,---,0.00,VWS V13.01,2013-05-06 00:59:00,
2013-05-05 20:05:00,59.0,48.5,29.99,NW,326,0.0,2.0,68,0.00,,---,0.00,VWS V13.01,2013-05-06 01:05:00,
2013-05-05 20:09:00,58.6,48.5,29.99,NW,326,0.0,0.0,69,0.00,,---,0.00,VWS V13.01,2013-05-06 01:09:00,
2013-05-05 20:15:00,58.3,48.2,30.00,NNW,331,0.0,3.0,69,0.00,,---,0.00,VWS V13.01,2013-05-06 01:15:00,
2013-05-05 20:20:00,58.1,48.4,30.00,NNW,330,0.0,3.0,70,0.00,,---,0.00,VWS V13.01,2013-05-06 01:20:00,
2013-05-05 20:25:00,57.8,48.5,30.00,NNW,330,0.0,3.0,71,0.00,,---,0.00,VWS V13.01,2013-05-06 01:25:00,
2013-05-05 20:30:00,57.4,48.8,30.00,NNW,331,0.0,3.0,73,0.00,,---,0.00,VWS V13.01,2013-05-06 01:30:00,
2013-05-05 20:35:00,57.0,48.8,30.00,NNW,331,0.0,3.0,74,0.00,,---,0.00,VWS V13.01,2013-05-06 01:35:00,
2013-05-05 20:40:00,57.0,49.2,30.00,NNW,331,0.0,1.0,75,0.00,,---,0.00,VWS V13.01,2013-05-06 01:40:00,
2013-05-05 20:45:00,57.0,48.8,30.00,NNW,330,0.0,1.0,74,0.00,,---,0.00,VWS V13.01,2013-05-06 01:45:00,
2013-05-05 20:50:00,57.1,48.9,30.00,NNW,330,0.0,1.0,74,0.00,,---,0.00,VWS V13.01,2013-05-06 01:50:00,
2013-05-05 20:55:00,57.1,48.9,30.00,NNW,330,0.0,1.0,74,0.00,,---,0.00,VWS V13.01,2013-05-06 01:55:00,
2013-05-05 21:00:00,57.2,49.0,30.00,NNW,331,0.0,1.0,74,0.00,,---,0.00,VWS V13.01,2013-05-06 02:00:00,
2013-05-05 21:05:00,57.2,49.0,30.00,NW,322,0.0,1.0,74,0.00,,---,0.00,VWS V13.01,2013-05-06 02:05:00,
2013-05-05 21:10:00,57.2,48.6,30.00,North,351,0.0,4.0,73,0.00,,---,0.00,VWS V13.01,2013-05-06 02:10:00,
2013-05-05 21:15:00,57.3,48.7,30.00,NNW,348,0.0,4.0,73,0.00,,---,0.00,VWS V13.01,2013-05-06 02:15:00,
2013-05-05 21:21:00,57.2,48.6,30.00,West,276,0.0,6.0,73,0.00,,---,0.00,VWS V13.01,2013-05-06 02:21:00,
2013-05-05 21:26:00,57.1,48.9,30.00,NW,313,0.0,6.0,74,0.00,,---,0.00,VWS V13.01,2013-05-06 02:26:00,
2013-05-05 21:31:00,57.0,48.8,30.00,NNW,330,0.0,6.0,74,0.00,,---,0.00,VWS V13.01,2013-05-06 02:31:00,
2013-05-05 21:36:00,57.0,49.2,30.00,WNW,288,0.0,6.0,75,0.00,,---,0.00,VWS V13.01,2013-05-06 02:36:00,
2013-05-05 21:41:00,56.9,49.4,30.00,WNW,291,0.0,3.0,76,0.00,,---,0.00,VWS V13.01,2013-05-06 02:41:00,
2013-05-05 21:46:00,56.8,49.3,30.00,NW,319,0.0,5.0,76,0.00,,---,0.00,VWS V13.01,2013-05-06 02:46:00,
2013-05-05 21:51:00,56.7,49.2,30.00,North,355,0.0,5.0,76,0.00,,---,0.00,VWS V13.01,2013-05-06 02:51:00,
2013-05-05 21:56:00,56.6,49.5,30.01,NW,306,4.0,5.0,77,0.00,,---,0.00,VWS V13.01,2013-05-06 02:56:00,
2013-05-05 22:01:00,56.5,49.4,30.01,NW,314,0.0,5.0,77,0.00,,---,0.00,VWS V13.01,2013-05-06 03:01:00,
2013-05-05 22:06:00,56.4,49.3,30.01,NW,309,0.0,2.0,77,0.00,,---,0.00,VWS V13.01,2013-05-06 03:06:00,
2013-05-05 22:11:00,56.2,49.4,30.01,WNW,286,0.0,5.0,78,0.00,,---,0.00,VWS V13.01,2013-05-06 03:11:00,
2013-05-05 22:16:00,56.0,49.2,30.01,WNW,292,0.0,5.0,78,0.00,,---,0.00,VWS V13.01,2013-05-06 03:16:00,
2013-05-05 22:22:00,55.8,49.0,30.01,WNW,296,2.0,10.0,78,0.00,,---,0.00,VWS V13.01,2013-05-06 03:22:00,
2013-05-05 22:27:00,55.5,48.8,30.01,NW,306,0.0,10.0,78,0.00,,---,0.00,VWS V13.01,2013-05-06 03:27:00,
2013-05-05 22:32:00,55.3,48.6,30.01,NW,306,2.0,10.0,78,0.00,,---,0.00,VWS V13.01,2013-05-06 03:32:00,
2013-05-05 22:37:00,55.0,48.6,30.01,NW,308,0.0,5.0,79,0.00,,---,0.00,VWS V13.01,2013-05-06 03:37:00,
2013-05-05 22:42:00,54.8,48.4,30.01,WNW,300,0.0,10.0,79,0.00,,---,0.00,VWS V13.01,2013-05-06 03:42:00,
2013-05-05 22:47:00,54.7,48.7,30.01,NNW,327,0.0,11.0,80,0.00,,---,0.00,VWS V13.01,2013-05-06 03:47:00,
2013-05-05 22:52:00,54.5,48.5,30.01,NW,322,0.0,11.0,80,0.00,,---,0.00,VWS V13.01,2013-05-06 03:52:00,
2013-05-05 22:57:00,54.4,48.4,30.01,NW,309,2.0,13.0,80,0.00,,---,0.00,VWS V13.01,2013-05-06 03:57:00,
2013-05-05 23:01:00,54.3,48.3,30.01,NW,310,0.0,13.0,80,0.00,,---,0.00,VWS V13.01,2013-05-06 04:01:00,
2013-05-05 23:03:00,54.2,48.5,30.01,WNW,298,2.0,13.0,81,0.00,,---,0.00,VWS V13.01,2013-05-06 04:03:00,
2013-05-05 23:08:00,54.1,48.4,30.00,WNW,297,9.0,12.0,81,0.00,,---,0.00,VWS V13.01,2013-05-06 04:08:00,
2013-05-05 23:13:00,54.0,48.3,30.01,NNW,334,0.0,12.0,81,0.00,,---,0.00,VWS V13.01,2013-05-06 04:13:00,
2013-05-05 23:18:00,53.9,48.5,30.01,NW,311,2.0,12.0,82,0.00,,---,0.00,VWS V13.01,2013-05-06 04:18:00,
2013-05-05 23:23:00,53.8,48.4,30.01,NW,322,0.0,12.0,82,0.00,,---,0.00,VWS V13.01,2013-05-06 04:23:00,
2013-05-05 23:29:00,53.7,48.3,30.00,NW,325,3.0,12.0,82,0.00,,---,0.00,VWS V13.01,2013-05-06 04:29:00,
2013-05-05 23:34:00,53.5,48.2,30.01,West,267,3.0,12.0,82,0.00,,---,0.00,VWS V13.01,2013-05-06 04:34:00,
2013-05-05 23:39:00,53.3,48.0,30.01,West,273,0.0,4.0,82,0.00,,---,0.00,VWS V13.01,2013-05-06 04:39:00,
2013-05-05 23:44:00,53.2,48.2,30.01,NW,308,5.0,7.0,83,0.00,,---,0.00,VWS V13.01,2013-05-06 04:44:00,
2013-05-05 23:49:00,53.1,48.1,30.01,NNW,339,0.0,7.0,83,0.00,,---,0.00,VWS V13.01,2013-05-06 04:49:00,
2013-05-05 23:54:00,53.0,48.0,30.01,NW,321,0.0,9.0,83,0.00,,---,0.00,VWS V13.01,2013-05-06 04:54:00,
2013-05-05 23:59:00,52.9,48.2,30.01,NNW,340,3.0,9.0,84,0.00,,---,0.00,VWS V13.01,2013-05-06 04:59:00,